QPF
0.00 0.00 0.00 0.00 0.00 0.01 0.03 0.03 0.03 0.05 0.01 0.00 0.00 0.00 0.00 0.00 0.00 0.00 0.00 0.00 0.00 0.00 0.00 0.02 0.03 0.01 0.00 0.00 0.00 0.00 0.00 0.00 0.00 0.00 0.00 0.00 0.00 0.01 0.00 0.00 0.00 0.00 0.00 0.00 0.00 0.00 0.00 0.00 0.00
0.00 0.00 0.00 0.01 0.02 0.00 0.01 0.04 0.07 0.06 0.05 0.00 0.01 0.01 0.00 0.00 0.00 0.00 0.00 0.00 0.00 0.00 0.01 0.00 0.01 0.00 0.00 0.00 0.00 0.00 0.00 0.00 0.00 0.00 0.00 0.00 0.00 0.00 0.00 0.01 0.00 0.00 0.00 0.00 0.00 0.00 0.00 0.00 0.00
0.00 0.00 0.02 0.07 0.05 0.00 0.02 0.05 0.04 0.07 0.01 0.00 0.00 0.01 0.00 0.00 0.00 0.00 0.00 0.00 0.00 0.00 0.00 0.00 0.00 0.00 0.00 0.00 0.00 0.00 0.00 0.00 0.00 0.00 0.00 0.00 0.00 0.00 0.00 0.01 0.00 0.00 0.00 0.00 0.00 0.00 0.00 0.00 0.00
0.00 0.02 0.07 0.07 0.01 0.01 0.03 0.06 0.06 0.05 0.00 0.00 0.00 0.00 0.00 0.00 0.00 0.00 0.00 0.00 0.00 0.00 0.00 0.00 0.00 0.00 0.00 0.00 0.00 0.00 0.00 0.00 0.00 0.00 0.00 0.00 0.00 0.00 0.00 0.00 0.00 0.00 0.00 0.00 0.00 0.00 0.00 0.00 0.00
0.02 0.10 0.04 0.02 0.01 0.04 0.03 0.06 0.09 0.07 0.02 0.00 0.00 0.00 0.00 0.00 0.00 0.00 0.00 0.00 0.00 0.00 0.00 0.00 0.00 0.00 0.00 0.00 0.00 0.00 0.00 0.00 0.00 0.00 0.00 0.00 0.00 0.00 0.00 0.00 0.00 0.00 0.00 0.00 0.00 0.00 0.00 0.00 0.00
0.16 0.07 0.01 0.00 0.00 0.02 0.01 0.06 0.13 0.06 0.01 0.01 0.00 0.00 0.00 0.00 0.00 0.00 0.00 0.00 0.00 0.00 0.00 0.00 0.00 0.00 0.00 0.00 0.00 0.00 0.00 0.00 0.00 0.00 0.00 0.00 0.00 0.00 0.00 0.00 0.00 0.00 0.00 0.00 0.00 0.00 0.00 0.00 0.00
0.12 0.10 0.03 0.00 0.03 0.01 0.01 0.01 0.04 0.06 0.01 0.00 0.00 0.00 0.00 0.00 0.00 0.00 0.00 0.00 0.00 0.00 0.00 0.00 0.00 0.00 0.00 0.00 0.00 0.00 0.00 0.00 0.00 0.00 0.00 0.00 0.00 0.00 0.00 0.00 0.00 0.00 0.00 0.00 0.00 0.00 0.00 0.02 0.02
0.04 0.10 0.06 0.01 0.03 0.03 0.01 0.02 0.05 0.01 0.00 0.00 0.00 0.00 0.00 0.00 0.00 0.00 0.00 0.00 0.00 0.00 0.00 0.00 0.00 0.00 0.00 0.00 0.00 0.00 0.00 0.00 0.00 0.00 0.00 0.00 0.00 0.00 0.00 0.00 0.00 0.00 0.00 0.00 0.00 0.00 0.00 0.02 0.04
0.01 0.04 0.02 0.04 0.02 0.01 0.08 0.11 0.08 0.02 0.00 0.00 0.00 0.00 0.00 0.00 0.00 0.00 0.00 0.00 0.00 0.00 0.00 0.00 0.00 0.00 0.00 0.00 0.00 0.00 0.00 0.00 0.00 0.00 0.00 0.00 0.00 0.00 0.00 0.00 0.00 0.00 0.00 0.00 0.00 0.00 0.00 0.02 0.06
0.01 0.02 0.01 0.00 0.00 0.00 0.00 0.02 0.03 0.01 0.01 0.02 0.02 0.00 0.00 0.00 0.00 0.00 0.00 0.00 0.00 0.00 0.00 0.00 0.00 0.00 0.00 0.00 0.00 0.00 0.00 0.00 0.00 0.00 0.00 0.00 0.00 0.00 0.00 0.00 0.04 0.04 0.01 0.00 0.01 0.00 0.00 0.00 0.04
0.00 0.01 0.00 0.00 0.00 0.00 0.00 0.00 0.00 0.00 0.01 0.00 0.00 0.00 0.00 0.00 0.00 0.00 0.00 0.00 0.00 0.00 0.00 0.00 0.00 0.00 0.00 0.00 0.00 0.00 0.00 0.00 0.00 0.00 0.02 0.00 0.00 0.00 0.01 0.00 0.03 0.02 0.00 0.00 0.00 0.02 0.02 0.02 0.04
0.00 0.00 0.00 0.00 0.00 0.00 0.00 0.00 0.00 0.00 0.00 0.00 0.00 0.00 0.00 0.00 0.00 0.00 0.00 0.00 0.00 0.00 0.00 0.00 0.00 0.00 0.00 0.00 0.00 0.00 0.00 0.00 0.00 0.00 0.03 0.01 0.01 0.06 0.02 0.08 0.06 0.06 0.00 0.00 0.00 0.00 0.00 0.01 0.00
0.00 0.00 0.00 0.01 0.00 0.00 0.00 0.00 0.01 0.00 0.00 0.00 0.00 0.00 0.00 0.00 0.00 0.00 0.00 0.00 0.00 0.00 0.00 0.00 0.00 0.00 0.00 0.00 0.00 0.00 0.00 0.00 0.00 0.00 0.02 0.02 0.00 0.02 0.05 0.06 0.03 0.00 0.00 0.00 0.00 0.01 0.00 0.00 0.00
0.00 0.00 0.00 0.00 0.01 0.01 0.01 0.00 0.03 0.06 0.00 0.00 0.00 0.00 0.00 0.00 0.00 0.00 0.00 0.00 0.00 0.00 0.00 0.00 0.00 0.00 0.00 0.00 0.00 0.00 0.00 0.00 0.00 0.00 0.00 0.00 0.00 0.03 0.08 0.09 0.02 0.00 0.00 0.00 0.00 0.00 0.00 0.01 0.01
0.00 0.00 0.00 0.00 0.01 0.03 0.01 0.00 0.05 0.10 0.04 0.00 0.00 0.00 0.00 0.00 0.00 0.00 0.00 0.00 0.00 0.00 0.00 0.00 0.00 0.00 0.00 0.00 0.00 0.00 0.00 0.00 0.00 0.00 0.00 0.00 0.01 0.03 0.03 0.06 0.01 0.00 0.01 0.02 0.01 0.01 0.01 0.00 0.00
0.00 0.00 0.00 0.00 0.01 0.01 0.04 0.01 0.02 0.02 0.03 0.00 0.00 0.00 0.00 0.00 0.00 0.00 0.00 0.00 0.00 0.00 0.00 0.00 0.00 0.00 0.00 0.00 0.00 0.00 0.00 0.00 0.00 0.00 0.00 0.00 0.00 0.01 0.02 0.02 0.00 0.00 0.00 0.00 0.02 0.02 0.01 0.00 0.00
0.00 0.00 0.00 0.00 0.00 0.00 0.02 0.02 0.01 0.02 0.01 0.00 0.00 0.00 0.00 0.00 0.00 0.00 0.00 0.00 0.00 0.00 0.00 0.00 0.00 0.00 0.00 0.00 0.00 0.00 0.00 0.00 0.00 0.00 0.00 0.00 0.00 0.01 0.02 0.02 0.00 0.00 0.01 0.00 0.01 0.01 0.00 0.00 0.00
0.00 0.00 0.00 0.00 0.00 0.01 0.01 0.02 0.02 0.01 0.00 0.00 0.00 0.00 0.00 0.00 0.00 0.00 0.00 0.00 0.00 0.00 0.00 0.00 0.00 0.00 0.00 0.00 0.00 0.00 0.00 0.00 0.00 0.00 0.00 0.00 0.00 0.01 0.00 0.01 0.00 0.00 0.00 0.00 0.00 0.00 0.00 0.00 0.00
0.00 0.00 0.00 0.00 0.00 0.02 0.02 0.00 0.01 0.02 0.00 0.00 0.00 0.00 0.00 0.00 0.00 0.00 0.00 0.00 0.00 0.00 0.00 0.00 0.00 0.00 0.00 0.00 0.00 0.00 0.00 0.00 0.00 0.00 0.00 0.00 0.00 0.00 0.00 0.00 0.00 0.00 0.00 0.00 0.01 0.00 0.00 0.00 0.00
0.00 0.00 0.00 0.00 0.00 0.00 0.00 0.00 0.03 0.02 0.00 0.00 0.00 0.00 0.00 0.00 0.00 0.00 0.00 0.00 0.00 0.00 0.00 0.00 0.00 0.00 0.00 0.00 0.00 0.00 0.00 0.00 0.00 0.00 0.00 0.00 0.00 0.00 0.00 0.00 0.00 0.01 0.00 0.00 0.00 0.00 0.00 0.00 0.00
0.00 0.00 0.00 0.00 0.00 0.00 0.00 0.05 0.02 0.01 0.00 0.01 0.00 0.00 0.00 0.00 0.00 0.00 0.00 0.00 0.00 0.00 0.00 0.00 0.00 0.00 0.00 0.00 0.00 0.00 0.00 0.00 0.00 0.00 0.00 0.00 0.00 0.00 0.00 0.00 0.00 0.00 0.00 0.00 0.01 0.00 0.00 0.00 0.00
0.00 0.00 0.00 0.00 0.00 0.00 0.00 0.00 0.00 0.00 0.00 0.00 0.01 0.00 0.00 0.00 0.00 0.00 0.00 0.00 0.00 0.00 0.00 0.00 0.00 0.00 0.00 0.00 0.00 0.00 0.00 0.00 0.00 0.00 0.00 0.00 0.00 0.00 0.00 0.00 0.00 0.00 0.00 0.00 0.00 0.00 0.00 0.00 0.00
0.00 0.00 0.00 0.00 0.00 0.00 0.01 0.00 0.00 0.00 0.00 0.00 0.00 0.00 0.00 0.00 0.00 0.00 0.00 0.00 0.00 0.00 0.00 0.00 0.00 0.00 0.00 0.00 0.00 0.00 0.00 0.00 0.00 0.00 0.00 0.00 0.00 0.00 0.00 0.00 0.00 0.00 0.00 0.00 0.00 0.00 0.00 0.00 0.00
0.00 0.00 0.00 0.00 0.00 0.00 0.00 0.00 0.00 0.00 0.00 0.00 0.00 0.00 0.00 0.00 0.00 0.00 0.00 0.00 0.00 0.00 0.00 0.00 0.00 0.00 0.00 0.00 0.00 0.00 0.00 0.00 0.00 0.00 0.00 0.00 0.00 0.00 0.00 0.00 0.00 0.00 0.00 0.00 0.00 0.00 0.00 0.00 0.00
0.00 0.00 0.00 0.00 0.00 0.00 0.00 0.00 0.00 0.00 0.00 0.00 0.00 0.00 0.00 0.00 0.00 0.00 0.00 0.00 0.00 0.00 0.00 0.00 0.00 0.00 0.00 0.00 0.00 0.00 0.00 0.00 0.00 0.00 0.00 0.00 0.00 0.00 0.00 0.00 0.00 0.00 0.00 0.00 0.00 0.00 0.00 0.00 0.00
0.00 0.00 0.00 0.00 0.00 0.00 0.00 0.00 0.00 0.00 0.00 0.00 0.00 0.00 0.00 0.00 0.00 0.00 0.00 0.00 0.00 0.00 0.00 0.00 0.00 0.00 0.00 0.00 0.00 0.00 0.00 0.00 0.00 0.00 0.00 0.00 0.00 0.00 0.00 0.00 0.00 0.00 0.00 0.00 0.00 0.00 0.00 0.00 0.00
0.00 0.00 0.00 0.00 0.00 0.00 0.00 0.00 0.00 0.00 0.00 0.00 0.00 0.00 0.00 0.00 0.00 0.00 0.00 0.00 0.00 0.00 0.00 0.00 0.00 0.00 0.00 0.00 0.00 0.00 0.00 0.00 0.00 0.00 0.00 0.00 0.00 0.00 0.00 0.00 0.00 0.00 0.00 0.00 0.00 0.00 0.00 0.00 0.00
0.00 0.00 0.00 0.00 0.00 0.00 0.00 0.00 0.00 0.00 0.00 0.00 0.00 0.00 0.00 0.00 0.00 0.00 0.00 0.00 0.00 0.00 0.00 0.00 0.00 0.00 0.00 0.00 0.00 0.00 0.00 0.00 0.00 0.00 0.00 0.00 0.00 0.00 0.00 0.00 0.00 0.00 0.00 0.00 0.00 0.00 0.00 0.00 0.00
0.00 0.00 0.00 0.00 0.00 0.00 0.00 0.00 0.00 0.00 0.00 0.00 0.00 0.00 0.00 0.00 0.00 0.00 0.00 0.00 0.00 0.00 0.00 0.00 0.00 0.00 0.00 0.00 0.00 0.00 0.00 0.00 0.00 0.00 0.00 0.00 0.00 0.00 0.00 0.00 0.00 0.00 0.00 0.00 0.00 0.00 0.00 0.00 0.00
0.00 0.00 0.00 0.00 0.00 0.00 0.00 0.00 0.00 0.00 0.00 0.00 0.00 0.00 0.00 0.00 0.00 0.00 0.00 0.00 0.00 0.00 0.00 0.00 0.00 0.00 0.00 0.00 0.00 0.00 0.00 0.00 0.00 0.00 0.00 0.00 0.00 0.00 0.00 0.00 0.00 0.00 0.00 0.00 0.00 0.00 0.00 0.00 0.00
MSLP
1011.37 1011.55 1011.85 1011.86 1012.50 1011.99 1011.30 1010.43 1009.65 1008.63 1007.79 1007.36 1008.09 1008.51 1009.94 1010.97 1012.05 1013.67 1013.81 1014.30 1014.59 1015.06 1015.22 1015.35 1015.43 1015.74 1015.93 1015.95 1016.05 1016.18 1016.37 1016.52 1016.65 1016.77 1016.81 1016.87 1016.91 1017.01 1017.10 1017.22 1017.38 1017.54 1017.71 1017.74 1017.78 1017.80 1017.86 1018.01 1018.13
1011.26 1011.73 1011.85 1011.66 1011.86 1011.51 1011.10 1010.21 1008.79 1008.43 1007.94 1007.32 1008.01 1008.60 1009.78 1011.73 1012.45 1013.38 1014.05 1014.36 1014.52 1014.87 1015.24 1015.43 1015.51 1015.83 1016.06 1016.16 1016.25 1016.43 1016.59 1016.76 1016.92 1017.00 1017.13 1017.25 1017.33 1017.38 1017.42 1017.53 1017.68 1017.81 1017.94 1017.97 1018.01 1018.02 1018.09 1018.29 1018.31
1011.13 1011.13 1011.60 1011.45 1011.23 1010.99 1010.60 1009.56 1008.52 1007.89 1007.58 1007.16 1008.17 1009.14 1010.63 1012.08 1012.87 1013.48 1013.71 1014.18 1014.56 1015.02 1015.24 1015.47 1015.66 1015.93 1016.15 1016.31 1016.46 1016.67 1016.81 1017.03 1017.25 1017.29 1017.44 1017.57 1017.69 1017.77 1017.77 1017.82 1017.99 1018.10 1018.23 1018.29 1018.23 1018.15 1018.23 1018.38 1018.37
1010.95 1011.45 1011.39 1011.34 1011.04 1010.70 1010.13 1009.61 1008.98 1008.06 1007.60 1007.64 1008.56 1010.27 1011.61 1012.19 1012.90 1013.23 1013.76 1014.06 1014.73 1015.09 1015.40 1015.58 1015.80 1015.97 1016.23 1016.47 1016.67 1016.84 1016.97 1017.23 1017.44 1017.49 1017.59 1017.71 1017.82 1017.90 1017.98 1018.07 1018.13 1018.24 1018.41 1018.49 1018.41 1018.39 1018.41 1018.43 1018.60
1010.85 1011.25 1011.44 1011.16 1011.19 1010.25 1009.51 1009.60 1009.40 1008.54 1007.79 1008.42 1008.75 1011.37 1012.33 1013.16 1013.04 1013.63 1014.07 1014.55 1014.95 1015.30 1015.50 1015.70 1015.87 1016.06 1016.30 1016.60 1016.80 1016.95 1017.12 1017.38 1017.57 1017.69 1017.73 1017.81 1017.93 1018.05 1018.10 1018.17 1018.25 1018.40 1018.56 1018.61 1018.60 1018.51 1018.53 1018.60 1018.61
1011.13 1011.73 1011.57 1011.05 1010.68 1009.78 1008.67 1008.61 1008.62 1008.56 1008.25 1009.04 1009.82 1011.01 1013.01 1013.26 1013.62 1014.02 1014.37 1014.81 1015.03 1015.41 1015.64 1015.79 1016.06 1016.17 1016.41 1016.71 1016.98 1017.20 1017.42 1017.63 1017.80 1017.82 1017.90 1018.06 1018.06 1018.13 1018.21 1018.34 1018.44 1018.53 1018.52 1018.58 1018.63 1018.69 1018.69 1018.61 1018.71
1010.68 1010.78 1011.09 1010.79 1010.13 1009.26 1007.47 1007.57 1007.82 1008.11 1008.30 1008.91 1009.27 1011.33 1013.19 1013.48 1013.88 1014.24 1014.59 1015.00 1015.15 1015.55 1015.71 1016.06 1016.19 1016.35 1016.61 1016.97 1017.15 1017.36 1017.62 1017.79 1017.89 1018.07 1018.15 1018.30 1018.27 1018.39 1018.31 1018.41 1018.52 1018.56 1018.57 1018.66 1018.65 1018.69 1018.75 1018.88 1018.81
1009.97 1010.20 1010.28 1010.30 1009.80 1008.73 1007.52 1007.03 1007.06 1007.51 1008.06 1008.71 1009.43 1010.98 1012.60 1012.97 1013.74 1014.22 1014.84 1015.23 1015.53 1015.84 1015.96 1016.37 1016.41 1016.55 1016.93 1017.15 1017.29 1017.54 1017.75 1017.87 1018.09 1018.20 1018.24 1018.34 1018.54 1018.45 1018.35 1018.46 1018.52 1018.47 1018.43 1018.56 1018.70 1018.69 1018.78 1018.99 1019.07
1009.72 1009.91 1009.52 1008.79 1008.43 1007.73 1006.91 1006.51 1007.52 1007.45 1007.92 1008.69 1009.21 1010.12 1011.44 1012.47 1013.48 1014.17 1014.81 1015.38 1015.87 1016.23 1016.35 1016.49 1016.63 1016.86 1017.24 1017.39 1017.49 1017.63 1017.85 1017.93 1018.13 1018.24 1018.35 1018.51 1018.73 1018.55 1018.53 1018.62 1018.55 1018.55 1018.54 1018.59 1018.67 1018.77 1018.89 1019.13 1019.21
1009.53 1009.04 1007.87 1007.03 1006.80 1006.71 1006.68 1006.42 1007.18 1007.83 1008.53 1009.31 1009.88 1010.94 1011.85 1012.50 1013.31 1013.90 1014.61 1015.22 1015.75 1016.24 1016.55 1016.67 1016.73 1017.08 1017.33 1017.41 1017.67 1017.78 1017.98 1018.14 1018.27 1018.36 1018.44 1018.68 1018.74 1018.65 1018.59 1018.60 1018.61 1018.65 1018.63 1018.73 1018.59 1018.94 1018.92 1019.05 1019.47
1008.32 1007.59 1006.62 1006.16 1005.76 1006.01 1006.09 1006.17 1006.50 1007.76 1008.90 1008.49 1009.47 1010.61 1011.87 1012.56 1013.27 1013.86 1014.57 1015.07 1015.43 1015.78 1016.29 1016.61 1016.62 1017.06 1017.27 1017.44 1017.75 1017.85 1018.13 1018.13 1018.13 1018.26 1018.50 1018.65 1018.58 1018.45 1018.54 1018.75 1018.82 1018.97 1018.78 1018.89 1018.95 1019.04 1019.05 1019.01 1019.62
1007.53 1006.36 1005.83 1005.14 1005.04 1005.54 1005.43 1006.00 1006.45 1006.58 1007.20 1008.55 1008.77 1009.48 1011.02 1012.24 1012.84 1013.45 1014.18 1014.74 1015.19 1015.62 1015.95 1016.35 1016.47 1016.90 1017.14 1017.45 1017.65 1017.70 1017.94 1017.99 1018.12 1018.30 1018.67 1018.73 1018.65 1018.48 1018.61 1018.77 1018.97 1019.13 1019.17 1018.97 1018.95 1019.04 1018.98 1019.15 1019.27
1006.83 1005.63 1005.27 1004.65 1004.71 1004.81 1004.96 1005.49 1006.22 1006.83 1007.49 1008.73 1009.77 1010.13 1010.86 1011.89 1012.72 1013.33 1013.89 1014.58 1015.04 1015.41 1015.69 1016.03 1016.27 1016.71 1016.88 1017.31 1017.55 1017.61 1017.64 1017.83 1017.85 1018.22 1018.59 1018.47 1018.48 1018.61 1018.61 1018.78 1019.05 1019.19 1019.23 1019.14 1019.11 1019.05 1019.15 1019.07 1019.37
1005.19 1005.43 1004.95 1004.58 1003.98 1004.83 1005.17 1005.59 1006.29 1008.37 1008.15 1009.05 1009.69 1010.56 1010.90 1011.34 1011.97 1012.79 1013.36 1013.94 1014.57 1014.94 1015.35 1015.65 1016.06 1016.30 1016.60 1016.93 1017.38 1017.46 1017.46 1017.49 1017.60 1017.92 1018.28 1018.23 1018.23 1018.54 1018.57 1018.94 1019.04 1019.23 1019.25 1019.07 1019.14 1019.20 1018.99 1019.35 1019.39
1005.23 1005.32 1004.75 1004.27 1003.85 1005.13 1005.04 1006.53 1007.55 1008.45 1009.25 1009.11 1009.93 1010.42 1011.07 1011.55 1011.89 1012.16 1012.49 1013.14 1013.78 1014.39 1014.77 1015.34 1015.68 1015.98 1016.41 1016.75 1017.03 1017.05 1017.05 1017.20 1017.23 1017.55 1017.89 1018.18 1018.15 1018.32 1018.75 1018.91 1019.04 1019.05 1018.98 1018.95 1019.30 1019.41 1019.33 1019.27 1019.47
1005.27 1004.96 1004.49 1003.57 1004.37 1005.15 1005.46 1007.52 1008.45 1008.49 1008.63 1009.50 1009.79 1010.12 1010.73 1011.10 1011.43 1011.73 1012.25 1012.63 1013.21 1013.86 1014.37 1014.93 1015.32 1015.82 1016.11 1016.35 1016.58 1016.71 1016.65 1016.75 1016.93 1017.22 1017.54 1017.82 1018.01 1018.25 1018.79 1019.10 1018.93 1019.04 1019.11 1019.14 1019.47 1019.62 1019.52 1019.23 1019.26
1005.23 1004.87 1004.11 1003.16 1003.30 1004.44 1005.79 1007.52 1008.54 1008.65 1009.03 1009.52 1009.62 1009.43 1009.97 1010.57 1010.99 1011.33 1011.63 1012.18 1012.65 1013.20 1013.78 1014.47 1014.95 1015.47 1015.81 1015.81 1015.93 1016.21 1016.37 1016.83 1016.88 1016.90 1017.19 1017.49 1017.81 1018.18 1018.51 1018.79 1018.83 1018.99 1018.97 1018.93 1019.19 1019.42 1019.56 1019.45 1019.35
1005.23 1004.70 1003.75 1002.94 1002.14 1003.75 1005.64 1007.02 1007.71 1008.36 1008.52 1009.05 1009.36 1009.27 1009.49 1009.84 1010.01 1010.29 1010.98 1011.61 1012.03 1012.66 1013.13 1013.81 1014.49 1015.11 1015.39 1015.57 1015.81 1016.09 1016.47 1016.47 1016.87 1017.01 1017.14 1017.39 1017.69 1018.06 1018.37 1018.59 1018.62 1018.98 1019.13 1019.35 1019.49 1019.51 1019.57 1019.51 1019.56
1004.60 1004.09 1003.44 1002.31 1002.52 1003.52 1004.45 1006.23 1006.24 1006.60 1008.01 1008.24 1008.37 1008.85 1008.86 1008.63 1009.12 1009.93 1010.31 1011.05 1011.55 1012.27 1012.78 1013.30 1013.95 1014.58 1015.09 1015.61 1016.04 1016.35 1016.68 1016.68 1016.89 1017.09 1016.86 1017.27 1017.38 1017.65 1018.11 1018.35 1018.45 1018.89 1019.26 1019.29 1019.43 1019.67 1019.68 1019.73 1019.84
1003.92 1003.46 1002.52 1001.92 1001.85 1002.54 1004.09 1005.25 1004.95 1006.05 1006.04 1006.59 1007.16 1007.45 1007.80 1008.40 1008.43 1009.21 1009.52 1010.20 1010.67 1011.55 1012.10 1012.84 1013.31 1013.95 1014.52 1015.01 1015.43 1015.87 1016.28 1016.44 1016.51 1016.64 1016.73 1016.91 1017.24 1017.49 1017.83 1018.11 1018.49 1018.65 1018.99 1019.24 1019.36 1019.58 1019.81 1019.97 1019.93
1002.61 1002.45 1002.11 1001.95 1001.93 1002.38 1003.63 1006.06 1006.70 1006.52 1006.48 1006.55 1006.63 1006.86 1007.08 1007.31 1007.70 1008.22 1008.68 1009.14 1009.72 1010.62 1011.35 1012.05 1012.73 1013.35 1013.99 1014.54 1015.15 1015.70 1016.09 1016.37 1016.57 1016.64 1016.78 1016.81 1017.04 1017.35 1017.57 1017.81 1018.06 1018.39 1018.72 1019.08 1019.25 1019.36 1019.57 1019.91 1019.99
1001.75 1001.51 1001.89 1001.90 1002.55 1003.01 1002.93 1005.00 1005.63 1005.79 1005.69 1005.77 1005.57 1005.59 1006.03 1006.26 1006.51 1007.20 1007.61 1008.25 1008.68 1009.42 1010.58 1011.35 1012.11 1012.74 1013.43 1014.11 1014.68 1015.21 1015.49 1015.94 1016.12 1016.15 1016.46 1016.71 1016.76 1017.11 1017.38 1017.51 1017.79 1018.17 1018.50 1018.86 1018.89 1019.11 1019.43 1019.79 1020.20
1000.80 1001.52 1001.76 1002.13 1002.83 1003.31 1003.35 1004.47 1003.62 1004.65 1004.85 1004.11 1003.37 1003.95 1004.38 1004.94 1005.12 1005.59 1005.97 1006.72 1007.37 1008.48 1009.67 1010.63 1011.39 1012.02 1012.69 1013.41 1013.87 1014.59 1015.18 1015.47 1015.68 1015.95 1016.20 1016.51 1016.65 1016.71 1016.99 1017.15 1017.48 1017.78 1018.10 1018.31 1018.58 1018.91 1019.37 1019.67 1020.02
1000.81 1001.45 1001.78 1002.37 1002.95 1003.03 1002.89 1003.48 1003.13 1003.10 1002.31 1001.97 1001.96 1002.22 1002.71 1003.56 1003.87 1004.39 1004.88 1005.98 1006.82 1007.88 1008.86 1009.93 1010.80 1011.32 1011.91 1012.60 1013.17 1013.86 1014.52 1015.07 1015.63 1015.87 1016.08 1016.19 1016.36 1016.55 1016.55 1016.71 1017.04 1017.24 1017.52 1017.97 1018.27 1018.63 1019.06 1019.44 1019.71
1000.50 1001.36 1002.49 1002.94 1003.17 1002.64 1002.17 1002.21 1000.77 1000.34 999.86 999.75 1000.07 1000.64 1001.30 1002.13 1003.02 1003.41 1004.08 1005.01 1006.07 1007.09 1007.94 1008.89 1009.89 1010.70 1011.27 1011.83 1012.48 1013.09 1013.71 1014.45 1014.87 1015.28 1015.58 1015.95 1016.09 1016.24 1016.38 1016.49 1016.74 1017.06 1017.14 1017.47 1017.79 1018.34 1018.73 1019.10 1019.47
999.33 1000.32 1001.38 1002.49 1002.79 1002.36 1001.33 1000.49 998.44 998.11 997.43 998.13 998.73 998.64 999.77 1000.87 1001.80 1002.30 1002.89 1003.73 1004.80 1005.85 1006.88 1007.87 1008.84 1009.62 1010.43 1011.02 1011.70 1012.41 1013.10 1013.67 1014.13 1014.58 1014.99 1015.26 1015.56 1015.66 1015.72 1015.94 1016.05 1016.35 1016.72 1017.13 1017.56 1018.06 1018.25 1018.67 1018.99
998.57 998.82 1000.09 1001.71 1002.27 1001.97 1000.63 999.28 997.93 997.09 997.30 997.34 997.83 998.16 998.87 999.31 1000.33 1000.87 1001.88 1002.87 1003.87 1004.87 1005.70 1006.65 1007.76 1008.63 1009.48 1010.15 1010.88 1011.61 1012.31 1012.83 1013.32 1013.89 1014.37 1014.73 1014.93 1015.16 1015.24 1015.37 1015.72 1015.91 1016.29 1016.71 1017.39 1017.89 1018.01 1018.18 1018.51
997.03 998.63 999.82 1000.65 1001.57 1001.74 1000.30 998.66 996.87 996.53 996.25 995.93 995.89 996.64 997.17 998.09 998.96 1000.18 1000.90 1001.83 1002.72 1003.64 1004.52 1005.75 1006.79 1007.60 1008.45 1009.29 1010.05 1010.75 1011.37 1012.10 1012.67 1013.27 1013.77 1014.10 1014.36 1014.71 1014.81 1014.95 1015.26 1015.64 1016.01 1016.49 1016.99 1017.39 1017.57 1017.80 1018.02
997.43 997.59 998.31 999.44 1000.40 1000.84 1000.18 997.38 995.61 995.27 995.07 995.08 995.11 995.38 996.31 996.69 997.64 998.85 999.65 1000.55 1001.58 1002.72 1004.05 1004.95 1006.07 1007.05 1007.95 1008.70 1009.39 1010.13 1010.75 1011.30 1011.98 1012.54 1012.96 1013.38 1013.81 1014.04 1014.22 1014.35 1014.83 1015.23 1015.71 1016.07 1016.52 1016.85 1017.14 1017.40 1017.57
997.31 997.51 998.29 998.93 999.95 999.88 998.94 995.93 994.91 994.36 994.16 993.96 993.85 993.97 994.21 995.17 995.93 997.25 998.44 999.57 1000.94 1002.09 1003.10 1004.16 1005.15 1006.25 1006.95 1007.61 1008.54 1009.30 1009.97 1010.68 1011.29 1011.71 1012.22 1012.67 1013.06 1013.34 1013.59 1013.92 1014.36 1014.75 1015.13 1015.41 1015.82 1016.13 1016.46 1016.76 1016.98
Thickness
5791 5790 5788 5781 5757 5756 5754 5767 5776 5783 5794 5810 5808 5801 5787 5783 5775 5757 5778 5776 5773 5768 5766 5765 5764 5762 5761 5763 5762 5762 5761 5761 5760 5760 5760 5760 5759 5758 5757 5756 5754 5752 5750 5749 5750 5749 5748 5747 5745
5793 5789 5783 5774 5756 5743 5752 5767 5770 5785 5798 5814 5810 5804 5791 5770 5781 5776 5773 5777 5774 5770 5767 5766 5765 5763 5762 5763 5763 5762 5762 5761 5760 5760 5759 5758 5757 5757 5757 5755 5753 5751 5749 5749 5749 5748 5745 5743 5743
5794 5793 5770 5763 5758 5746 5753 5777 5789 5801 5813 5816 5803 5803 5788 5773 5779 5777 5782 5779 5775 5771 5769 5767 5766 5764 5763 5763 5763 5763 5762 5761 5759 5759 5758 5757 5756 5756 5756 5754 5752 5750 5748 5747 5748 5748 5744 5742 5743
5788 5779 5775 5757 5755 5765 5770 5779 5789 5799 5811 5815 5804 5781 5785 5788 5780 5784 5784 5780 5775 5772 5769 5767 5766 5766 5764 5763 5763 5763 5763 5762 5760 5760 5759 5758 5757 5756 5755 5753 5752 5751 5748 5746 5747 5745 5741 5739 5739
5787 5772 5755 5753 5756 5767 5784 5784 5785 5789 5803 5800 5805 5771 5771 5779 5786 5784 5781 5779 5773 5772 5770 5768 5767 5766 5765 5765 5765 5765 5764 5763 5761 5760 5760 5759 5758 5757 5756 5756 5755 5752 5748 5748 5747 5745 5741 5738 5740
5769 5762 5747 5745 5756 5775 5792 5797 5793 5792 5799 5794 5789 5783 5768 5782 5780 5780 5780 5776 5773 5772 5770 5769 5767 5767 5767 5766 5765 5764 5763 5762 5761 5762 5761 5758 5759 5759 5758 5757 5755 5753 5752 5750 5748 5746 5743 5742 5743
5767 5766 5752 5754 5761 5766 5797 5806 5799 5795 5795 5792 5804 5773 5769 5776 5780 5779 5777 5775 5773 5770 5771 5768 5767 5768 5767 5765 5765 5765 5763 5763 5762 5761 5761 5759 5760 5759 5761 5758 5756 5755 5754 5752 5752 5751 5747 5744 5745
5778 5771 5760 5760 5755 5766 5801 5808 5813 5803 5797 5810 5803 5772 5764 5779 5782 5779 5776 5773 5771 5770 5770 5768 5769 5769 5767 5766 5766 5764 5763 5764 5762 5761 5763 5763 5760 5762 5764 5763 5760 5759 5759 5756 5755 5754 5751 5748 5746
5791 5762 5754 5770 5774 5781 5803 5804 5807 5814 5802 5803 5804 5796 5790 5789 5784 5778 5773 5770 5768 5768 5769 5768 5769 5769 5767 5766 5766 5765 5763 5764 5763 5763 5763 5762 5761 5765 5766 5765 5762 5760 5759 5758 5756 5756 5754 5750 5748
5776 5760 5773 5800 5797 5792 5802 5804 5801 5796 5790 5788 5789 5792 5790 5788 5782 5776 5771 5768 5767 5766 5767 5770 5770 5769 5768 5767 5766 5766 5765 5765 5765 5765 5766 5764 5765 5767 5768 5767 5764 5762 5761 5759 5759 5756 5755 5752 5750
5786 5771 5796 5805 5812 5805 5802 5806 5813 5791 5777 5794 5787 5787 5785 5783 5781 5776 5773 5771 5770 5771 5770 5771 5773 5771 5770 5769 5768 5768 5768 5770 5770 5770 5770 5768 5770 5772 5772 5768 5765 5760 5761 5762 5761 5759 5758 5756 5749
5778 5801 5805 5811 5815 5806 5806 5809 5803 5808 5802 5804 5804 5803 5792 5783 5782 5779 5775 5775 5773 5772 5774 5774 5775 5773 5773 5772 5771 5772 5772 5773 5773 5773 5771 5770 5772 5774 5774 5772 5766 5763 5762 5764 5763 5762 5761 5757 5755
5786 5800 5810 5814 5813 5812 5815 5803 5804 5803 5808 5804 5796 5796 5791 5787 5782 5782 5781 5777 5776 5774 5776 5777 5777 5776 5776 5775 5774 5776 5778 5776 5777 5776 5773 5774 5776 5776 5776 5774 5768 5764 5763 5763 5763 5764 5761 5759 5754
5804 5799 5805 5811 5813 5805 5804 5805 5806 5794 5805 5798 5795 5787 5789 5789 5789 5785 5783 5780 5779 5779 5779 5781 5781 5779 5778 5778 5777 5779 5781 5781 5782 5780 5777 5777 5778 5777 5778 5774 5769 5766 5765 5765 5764 5762 5760 5756 5755
5799 5783 5798 5807 5813 5797 5813 5788 5785 5796 5795 5794 5792 5790 5786 5783 5788 5788 5789 5786 5785 5783 5785 5782 5784 5783 5782 5783 5780 5782 5783 5783 5785 5784 5782 5780 5781 5779 5776 5772 5769 5768 5770 5768 5764 5759 5758 5758 5755
5781 5782 5767 5804 5798 5798 5798 5761 5782 5796 5796 5786 5789 5792 5788 5786 5785 5790 5790 5791 5791 5787 5786 5786 5788 5786 5786 5787 5786 5786 5787 5789 5790 5789 5788 5784 5782 5782 5777 5772 5771 5771 5769 5768 5765 5763 5761 5762 5760
5768 5753 5769 5789 5809 5795 5787 5764 5779 5793 5790 5782 5787 5793 5792 5790 5788 5789 5793 5793 5794 5791 5791 5788 5790 5788 5788 5792 5792 5791 5790 5790 5790 5792 5790 5788 5786 5782 5779 5775 5774 5771 5770 5770 5768 5766 5766 5764 5761
5746 5758 5772 5779 5807 5797 5779 5770 5783 5791 5792 5785 5785 5791 5791 5790 5792 5796 5795 5795 5797 5795 5795 5793 5793 5791 5792 5794 5795 5794 5792 5792 5790 5790 5791 5789 5786 5784 5782 5781 5780 5775 5772 5770 5769 5767 5767 5767 5762
5771 5769 5769 5793 5803 5790 5783 5776 5789 5800 5788 5792 5792 5792 5792 5797 5801 5800 5798 5796 5797 5795 5797 5796 5795 5795 5794 5792 5791 5790 5788 5791 5791 5790 5793 5791 5789 5787 5785 5783 5782 5777 5774 5773 5771 5769 5767 5765 5764
5767 5768 5778 5797 5809 5806 5787 5781 5798 5795 5796 5798 5799 5803 5799 5795 5800 5799 5800 5800 5801 5797 5800 5799 5798 5798 5797 5798 5797 5796 5793 5794 5795 5795 5795 5795 5792 5789 5788 5786 5784 5782 5779 5776 5774 5772 5768 5766 5766
5767 5766 5777 5781 5799 5800 5781 5753 5762 5783 5795 5800 5804 5809 5806 5803 5802 5803 5802 5803 5805 5803 5803 5803 5803 5801 5801 5801 5799 5798 5797 5796 5794 5795 5795 5796 5795 5792 5791 5790 5788 5785 5782 5779 5778 5777 5773 5766 5768
5752 5789 5787 5786 5773 5751 5793 5727 5760 5778 5788 5795 5802 5811 5809 5809 5813 5812 5809 5806 5811 5812 5808 5807 5806 5805 5804 5804 5802 5799 5799 5796 5798 5799 5799 5799 5798 5796 5794 5793 5791 5789 5786 5783 5783 5781 5775 5772 5765
5772 5783 5781 5784 5764 5761 5773 5747 5769 5781 5777 5800 5820 5818 5819 5818 5821 5822 5822 5820 5821 5819 5814 5812 5811 5811 5810 5808 5808 5803 5801 5804 5803 5802 5801 5800 5801 5800 5798 5797 5794 5793 5791 5790 5787 5783 5778 5775 5771
5785 5769 5770 5769 5752 5724 5760 5762 5756 5770 5798 5814 5826 5831 5832 5826 5827 5829 5831 5825 5822 5822 5820 5817 5812 5813 5815 5814 5812 5809 5806 5803 5802 5802 5802 5802 5803 5803 5802 5801 5798 5797 5796 5793 5789 5787 5784 5779 5777
5763 5739 5712 5705 5713 5712 5766 5751 5786 5808 5823 5834 5834 5837 5838 5838 5829 5830 5828 5825 5823 5822 5823 5821 5819 5815 5817 5818 5816 5815 5813 5809 5807 5806 5806 5804 5805 5804 5803 5803 5802 5800 5799 5796 5793 5790 5787 5783 5780
5749 5747 5714 5693 5697 5734 5766 5741 5792 5831 5847 5845 5843 5851 5847 5844 5841 5837 5835 5834 5830 5828 5827 5826 5824 5823 5822 5821 5820 5819 5817 5815 5813 5811 5809 5809 5808 5808 5808 5806 5806 5804 5801 5797 5794 5792 5791 5788 5785
5747 5736 5767 5726 5735 5726 5747 5781 5811 5828 5827 5837 5841 5846 5844 5850 5848 5846 5844 5839 5837 5835 5835 5834 5831 5829 5827 5826 5824 5823 5821 5820 5818 5816 5814 5813 5812 5812 5812 5812 5810 5807 5804 5800 5795 5792 5792 5792 5789
5766 5764 5733 5715 5709 5703 5729 5755 5786 5809 5823 5836 5848 5851 5854 5854 5854 5848 5849 5845 5846 5844 5844 5841 5838 5835 5833 5831 5829 5827 5826 5824 5823 5820 5816 5816 5816 5814 5814 5815 5813 5809 5807 5803 5798 5795 5796 5794 5792
5746 5744 5748 5748 5722 5720 5708 5756 5813 5822 5834 5838 5846 5860 5857 5861 5861 5854 5856 5856 5852 5849 5846 5844 5840 5836 5834 5834 5833 5830 5829 5828 5826 5824 5822 5821 5819 5818 5817 5817 5815 5811 5807 5805 5801 5799 5797 5795 5794
5754 5745 5747 5731 5717 5723 5733 5771 5830 5835 5841 5850 5852 5863 5871 5870 5872 5866 5865 5861 5851 5850 5851 5847 5845 5841 5840 5839 5837 5835 5834 5832 5829 5828 5827 5825 5822 5822 5821 5817 5815 5812 5810 5807 5805 5803 5801 5798 5796